Time,TemperatureF,DewpointF,PressureIn,WindDirection,WindDirectionDegrees,WindSpeedMPH,WindSpeedGustMPH,Humidity,HourlyPrecipIn,Conditions,Clouds,dailyrainin,SoftwareType,DateUTC
2013-02-26 00:01:00,14.0,0.0,30.21,NE,49,0.0,-999.0,53,-99.99,,,-99.99,,2013-02-26 07:01:00,
2013-02-26 00:11:00,14.0,0.0,30.21,NE,49,0.0,-999.0,53,-99.99,,,-99.99,,2013-02-26 07:11:00,
2013-02-26 00:22:00,14.0,1.0,30.20,NE,49,0.0,-999.0,56,-99.99,,,-99.99,,2013-02-26 07:22:00,
2013-02-26 00:31:00,13.0,1.0,30.19,NE,49,0.0,-999.0,57,-99.99,,,-99.99,,2013-02-26 07:31:00,
2013-02-26 00:41:00,13.0,1.0,30.19,NE,49,0.0,-999.0,57,-99.99,,,-99.99,,2013-02-26 07:41:00,
2013-02-26 00:52:00,13.0,2.0,30.17,NE,49,0.0,-999.0,60,-99.99,,,-99.99,,2013-02-26 07:52:00,
2013-02-26 01:01:00,14.0,1.0,30.16,East,87,1.0,-999.0,56,-99.99,,,-99.99,,2013-02-26 08:01:00,
2013-02-26 01:11:00,14.0,1.0,30.16,East,87,1.0,-999.0,56,-99.99,,,-99.99,,2013-02-26 08:11:00,
2013-02-26 01:21:00,14.0,1.0,30.16,East,87,1.0,-999.0,56,-99.99,,,-99.99,,2013-02-26 08:21:00,
2013-02-26 01:31:00,16.0,2.0,30.14,ENE,58,1.0,-999.0,52,-99.99,,,-99.99,,2013-02-26 08:31:00,
2013-02-26 01:42:00,16.0,2.0,30.14,ENE,58,1.0,-999.0,52,-99.99,,,-99.99,,2013-02-26 08:42:00,
2013-02-26 01:52:00,16.0,2.0,30.14,ENE,74,1.0,-999.0,52,-99.99,,,-99.99,,2013-02-26 08:52:00,
2013-02-26 02:01:00,15.0,1.0,30.13,ENE,75,1.0,-999.0,53,-99.99,,,-99.99,,2013-02-26 09:01:00,
2013-02-26 02:11:00,15.0,1.0,30.13,ENE,75,1.0,-999.0,53,-99.99,,,-99.99,,2013-02-26 09:11:00,
2013-02-26 02:21:00,15.0,1.0,30.12,East,97,1.0,-999.0,54,-99.99,,,-99.99,,2013-02-26 09:21:00,
2013-02-26 02:31:00,15.0,2.0,30.11,SE,128,1.0,-999.0,55,-99.99,,,-99.99,,2013-02-26 09:31:00,
2013-02-26 02:43:00,15.0,2.0,30.11,SE,128,1.0,-999.0,55,-99.99,,,-99.99,,2013-02-26 09:43:00,
2013-02-26 02:52:00,14.0,1.0,30.10,ESE,108,1.0,-999.0,56,-99.99,,,-99.99,,2013-02-26 09:52:00,
2013-02-26 03:01:00,13.0,1.0,30.10,East,87,1.0,-999.0,58,-99.99,,,-99.99,,2013-02-26 10:01:00,
2013-02-26 03:11:00,13.0,1.0,30.10,East,87,1.0,-999.0,58,-99.99,,,-99.99,,2013-02-26 10:11:00,
2013-02-26 03:21:00,12.0,0.0,30.10,East,87,0.0,-999.0,58,-99.99,,,-99.99,,2013-02-26 10:21:00,
2013-02-26 03:31:00,11.0,0.0,30.09,East,87,0.0,-999.0,61,-99.99,,,-99.99,,2013-02-26 10:31:00,
2013-02-26 03:41:00,11.0,0.0,30.09,East,87,0.0,-999.0,61,-99.99,,,-99.99,,2013-02-26 10:41:00,
2013-02-26 03:52:00,10.0,0.0,30.09,East,87,0.0,-999.0,63,-99.99,,,-99.99,,2013-02-26 10:52:00,
2013-02-26 04:01:00,9.0,-1.0,30.07,East,87,0.0,-999.0,64,-99.99,,,-99.99,,2013-02-26 11:01:00,
2013-02-26 04:12:00,9.0,-1.0,30.07,East,87,0.0,-999.0,64,-99.99,,,-99.99,,2013-02-26 11:12:00,
2013-02-26 04:21:00,7.0,-3.0,30.06,East,87,0.0,-999.0,64,-99.99,,,-99.99,,2013-02-26 11:21:00,
2013-02-26 04:32:00,5.0,-3.0,30.06,East,87,1.0,-999.0,69,-99.99,,,-99.99,,2013-02-26 11:32:00,
2013-02-26 04:52:00,5.0,-3.0,30.05,East,87,0.0,-999.0,70,-99.99,,,-99.99,,2013-02-26 11:52:00,
2013-02-26 05:01:00,4.0,-2.0,30.06,East,87,0.0,-999.0,77,-99.99,,,-99.99,,2013-02-26 12:01:00,
2013-02-26 05:11:00,4.0,-2.0,30.06,East,87,0.0,-999.0,77,-99.99,,,-99.99,,2013-02-26 12:11:00,
2013-02-26 05:22:00,3.0,-5.0,30.06,East,87,0.0,-999.0,70,-99.99,,,-99.99,,2013-02-26 12:22:00,
2013-02-26 05:32:00,2.0,-5.0,30.05,East,87,0.0,-999.0,71,-99.99,,,-99.99,,2013-02-26 12:32:00,
2013-02-26 05:42:00,2.0,-5.0,30.05,East,87,0.0,-999.0,71,-99.99,,,-99.99,,2013-02-26 12:42:00,
2013-02-26 05:53:00,1.0,-6.0,30.05,East,87,0.0,-999.0,72,-99.99,,,-99.99,,2013-02-26 12:53:00,
2013-02-26 06:01:00,1.0,-4.0,30.05,East,87,0.0,-999.0,77,-99.99,,,-99.99,,2013-02-26 13:01:00,
2013-02-26 06:11:00,1.0,-4.0,30.05,East,87,0.0,-999.0,77,-99.99,,,-99.99,,2013-02-26 13:11:00,
2013-02-26 06:21:00,1.0,-5.0,30.05,East,87,0.0,-999.0,75,-99.99,,,-99.99,,2013-02-26 13:21:00,
2013-02-26 06:32:00,1.0,-4.0,30.04,East,87,0.0,-999.0,77,-99.99,,,-99.99,,2013-02-26 13:32:00,
2013-02-26 06:42:00,1.0,-4.0,30.04,East,87,0.0,-999.0,77,-99.99,,,-99.99,,2013-02-26 13:42:00,
2013-02-26 06:52:00,2.0,-4.0,30.04,East,87,0.0,-999.0,76,-99.99,,,-99.99,,2013-02-26 13:52:00,
2013-02-26 07:01:00,3.0,-3.0,30.04,East,87,0.0,-999.0,74,-99.99,,,-99.99,,2013-02-26 14:01:00,
2013-02-26 07:11:00,3.0,-3.0,30.04,East,87,0.0,-999.0,74,-99.99,,,-99.99,,2013-02-26 14:11:00,
2013-02-26 07:21:00,2.0,-5.0,30.03,East,87,0.0,-999.0,73,-99.99,,,-99.99,,2013-02-26 14:21:00,
2013-02-26 07:32:00,2.0,-4.0,30.03,East,87,0.0,-999.0,74,-99.99,,,-99.99,,2013-02-26 14:32:00,
2013-02-26 07:42:00,2.0,-4.0,30.03,East,87,0.0,-999.0,74,-99.99,,,-99.99,,2013-02-26 14:42:00,
2013-02-26 07:52:00,4.0,-2.0,30.03,East,87,0.0,-999.0,77,-99.99,,,-99.99,,2013-02-26 14:52:00,
2013-02-26 08:02:00,6.0,0.0,30.02,East,87,0.0,-999.0,74,-99.99,,,-99.99,,2013-02-26 15:02:00,
2013-02-26 08:11:00,6.0,0.0,30.02,East,87,0.0,-999.0,74,-99.99,,,-99.99,,2013-02-26 15:11:00,
2013-02-26 08:21:00,8.0,1.0,30.02,East,87,0.0,-999.0,71,-99.99,,,-99.99,,2013-02-26 15:21:00,
2013-02-26 08:32:00,10.0,2.0,30.01,SSW,192,0.0,-999.0,69,-99.99,,,-99.99,,2013-02-26 15:32:00,
2013-02-26 08:42:00,10.0,2.0,30.01,SSW,192,0.0,-999.0,69,-99.99,,,-99.99,,2013-02-26 15:42:00,
2013-02-26 08:52:00,11.0,1.0,30.01,SSW,196,0.0,-999.0,64,-99.99,,,-99.99,,2013-02-26 15:52:00,
2013-02-26 09:01:00,12.0,1.0,30.00,SSW,209,1.0,-999.0,61,-99.99,,,-99.99,,2013-02-26 16:01:00,
2013-02-26 09:11:00,12.0,1.0,30.00,SSW,209,1.0,-999.0,61,-99.99,,,-99.99,,2013-02-26 16:11:00,
2013-02-26 09:22:00,13.0,2.0,30.01,SW,226,1.0,-999.0,60,-99.99,,,-99.99,,2013-02-26 16:22:00,
2013-02-26 09:32:00,14.0,2.0,30.01,WSW,252,2.0,-999.0,58,-99.99,,,-99.99,,2013-02-26 16:32:00,
2013-02-26 09:42:00,14.0,2.0,30.01,WSW,252,2.0,-999.0,58,-99.99,,,-99.99,,2013-02-26 16:42:00,
2013-02-26 09:52:00,14.0,2.0,30.01,SW,229,2.0,-999.0,58,-99.99,,,-99.99,,2013-02-26 16:52:00,
2013-02-26 10:01:00,14.0,2.0,30.01,SSE,148,1.0,-999.0,59,-99.99,,,-99.99,,2013-02-26 17:01:00,
2013-02-26 10:11:00,15.0,3.0,30.00,SSW,205,2.0,-999.0,57,-99.99,,,-99.99,,2013-02-26 17:11:00,
2013-02-26 10:21:00,15.0,3.0,30.00,SSW,205,2.0,-999.0,57,-99.99,,,-99.99,,2013-02-26 17:21:00,
2013-02-26 10:32:00,15.0,2.0,30.00,WSW,257,3.0,-999.0,56,-99.99,,,-99.99,,2013-02-26 17:32:00,
2013-02-26 10:41:00,15.0,2.0,30.00,WSW,257,3.0,-999.0,56,-99.99,,,-99.99,,2013-02-26 17:41:00,
2013-02-26 10:52:00,15.0,1.0,30.02,SW,227,3.0,-999.0,54,-99.99,,,-99.99,,2013-02-26 17:52:00,
2013-02-26 11:01:00,14.0,0.0,30.01,South,171,3.0,-999.0,53,-99.99,,,-99.99,,2013-02-26 18:01:00,
2013-02-26 11:12:00,14.0,0.0,30.01,South,171,3.0,-999.0,53,-99.99,,,-99.99,,2013-02-26 18:12:00,
2013-02-26 11:21:00,14.0,0.0,30.02,SSW,201,2.0,-999.0,54,-99.99,,,-99.99,,2013-02-26 18:21:00,
2013-02-26 11:32:00,13.0,1.0,30.03,SW,227,3.0,-999.0,57,-99.99,,,-99.99,,2013-02-26 18:32:00,
2013-02-26 11:42:00,13.0,1.0,30.03,SW,227,3.0,-999.0,57,-99.99,,,-99.99,,2013-02-26 18:42:00,
2013-02-26 11:52:00,12.0,2.0,30.02,SSW,211,3.0,-999.0,62,-99.99,,,-99.99,,2013-02-26 18:52:00,
2013-02-26 12:01:00,12.0,2.0,30.02,SW,232,2.0,-999.0,64,-99.99,,,-99.99,,2013-02-26 19:01:00,
2013-02-26 12:11:00,12.0,2.0,30.02,SW,232,2.0,-999.0,64,-99.99,,,-99.99,,2013-02-26 19:11:00,
2013-02-26 12:22:00,11.0,1.0,30.02,SW,219,3.0,-999.0,62,-99.99,,,-99.99,,2013-02-26 19:22:00,
2013-02-26 12:32:00,12.0,1.0,30.02,South,189,3.0,-999.0,60,-99.99,,,-99.99,,2013-02-26 19:32:00,
2013-02-26 12:42:00,12.0,1.0,30.02,South,189,3.0,-999.0,60,-99.99,,,-99.99,,2013-02-26 19:42:00,
2013-02-26 12:52:00,13.0,2.0,30.04,West,275,2.0,-999.0,60,-99.99,,,-99.99,,2013-02-26 19:52:00,
2013-02-26 13:01:00,14.0,2.0,30.03,SW,233,3.0,-999.0,57,-99.99,,,-99.99,,2013-02-26 20:01:00,
2013-02-26 13:11:00,14.0,2.0,30.03,SW,233,3.0,-999.0,57,-99.99,,,-99.99,,2013-02-26 20:11:00,
2013-02-26 13:21:00,15.0,2.0,30.03,WSW,251,4.0,-999.0,55,-99.99,,,-99.99,,2013-02-26 20:21:00,
2013-02-26 13:32:00,16.0,3.0,30.04,SSW,211,2.0,-999.0,56,-99.99,,,-99.99,,2013-02-26 20:32:00,
2013-02-26 13:41:00,16.0,3.0,30.04,SSW,211,2.0,-999.0,56,-99.99,,,-99.99,,2013-02-26 20:41:00,
2013-02-26 13:52:00,16.0,3.0,30.05,SSW,205,3.0,-999.0,55,-99.99,,,-99.99,,2013-02-26 20:52:00,
2013-02-26 14:01:00,15.0,3.0,30.05,South,169,2.0,-999.0,59,-99.99,,,-99.99,,2013-02-26 21:01:00,
2013-02-26 14:11:00,15.0,3.0,30.05,South,169,2.0,-999.0,59,-99.99,,,-99.99,,2013-02-26 21:11:00,
2013-02-26 14:21:00,14.0,3.0,30.05,SW,232,3.0,-999.0,61,-99.99,,,-99.99,,2013-02-26 21:21:00,
2013-02-26 14:31:00,14.0,2.0,30.06,SW,221,4.0,-999.0,59,-99.99,,,-99.99,,2013-02-26 21:31:00,
2013-02-26 14:41:00,14.0,2.0,30.06,SW,221,4.0,-999.0,59,-99.99,,,-99.99,,2013-02-26 21:41:00,
2013-02-26 14:51:00,14.0,2.0,30.07,SSE,163,3.0,-999.0,59,-99.99,,,-99.99,,2013-02-26 21:51:00,
2013-02-26 15:01:00,15.0,1.0,30.08,SSE,154,3.0,-999.0,54,-99.99,,,-99.99,,2013-02-26 22:01:00,
2013-02-26 15:11:00,15.0,0.0,30.09,West,266,2.0,-999.0,50,-99.99,,,-99.99,,2013-02-26 22:11:00,
2013-02-26 15:21:00,15.0,0.0,30.09,West,266,2.0,-999.0,50,-99.99,,,-99.99,,2013-02-26 22:21:00,
2013-02-26 15:31:00,14.0,0.0,30.10,SSE,163,3.0,-999.0,52,-99.99,,,-99.99,,2013-02-26 22:31:00,
2013-02-26 15:41:00,14.0,0.0,30.10,SSE,163,3.0,-999.0,52,-99.99,,,-99.99,,2013-02-26 22:41:00,
2013-02-26 15:52:00,14.0,0.0,30.11,SSW,198,2.0,-999.0,52,-99.99,,,-99.99,,2013-02-26 22:52:00,
2013-02-26 16:01:00,13.0,0.0,30.13,South,178,2.0,-999.0,55,-99.99,,,-99.99,,2013-02-26 23:01:00,
2013-02-26 16:11:00,13.0,0.0,30.13,South,178,2.0,-999.0,55,-99.99,,,-99.99,,2013-02-26 23:11:00,
2013-02-26 16:21:00,13.0,0.0,30.13,South,182,3.0,-999.0,54,-99.99,,,-99.99,,2013-02-26 23:21:00,
2013-02-26 16:31:00,12.0,-1.0,30.14,ESE,106,3.0,-999.0,55,-99.99,,,-99.99,,2013-02-26 23:31:00,
2013-02-26 16:41:00,12.0,-1.0,30.14,ESE,106,3.0,-999.0,55,-99.99,,,-99.99,,2013-02-26 23:41:00,
2013-02-26 16:52:00,11.0,-2.0,30.16,East,94,3.0,-999.0,56,-99.99,,,-99.99,,2013-02-26 23:52:00,
2013-02-26 17:01:00,10.0,-3.0,30.16,East,86,3.0,-999.0,56,-99.99,,,-99.99,,2013-02-27 00:01:00,
2013-02-26 17:11:00,10.0,-3.0,30.16,East,86,3.0,-999.0,56,-99.99,,,-99.99,,2013-02-27 00:11:00,
2013-02-26 17:21:00,10.0,-3.0,30.18,ESE,113,2.0,-999.0,56,-99.99,,,-99.99,,2013-02-27 00:21:00,
2013-02-26 17:31:00,9.0,-3.0,30.18,NNE,19,2.0,-999.0,57,-99.99,,,-99.99,,2013-02-27 00:31:00,
2013-02-26 17:41:00,9.0,-3.0,30.18,NNE,19,2.0,-999.0,57,-99.99,,,-99.99,,2013-02-27 00:41:00,
2013-02-26 17:52:00,9.0,-3.0,30.18,NNE,19,2.0,-999.0,57,-99.99,,,-99.99,,2013-02-27 00:52:00,
2013-02-26 18:01:00,9.0,-2.0,30.22,SE,138,2.0,-999.0,59,-99.99,,,-99.99,,2013-02-27 01:01:00,
2013-02-26 18:11:00,9.0,-2.0,30.22,SE,138,2.0,-999.0,59,-99.99,,,-99.99,,2013-02-27 01:11:00,
2013-02-26 18:22:00,8.0,-4.0,30.22,South,175,1.0,-999.0,58,-99.99,,,-99.99,,2013-02-27 01:22:00,
2013-02-26 18:32:00,8.0,-4.0,30.24,NE,47,1.0,-999.0,57,-99.99,,,-99.99,,2013-02-27 01:32:00,
2013-02-26 18:42:00,8.0,-4.0,30.24,NE,47,1.0,-999.0,57,-99.99,,,-99.99,,2013-02-27 01:42:00,
2013-02-26 18:52:00,8.0,-4.0,30.24,East,100,2.0,-999.0,56,-99.99,,,-99.99,,2013-02-27 01:52:00,
2013-02-26 19:01:00,8.0,-4.0,30.27,ESE,109,1.0,-999.0,56,-99.99,,,-99.99,,2013-02-27 02:01:00,
2013-02-26 19:14:00,8.0,-4.0,30.27,ESE,109,1.0,-999.0,56,-99.99,,,-99.99,,2013-02-27 02:14:00,
2013-02-26 19:23:00,8.0,-4.0,30.27,SSW,194,1.0,-999.0,57,-99.99,,,-99.99,,2013-02-27 02:23:00,
2013-02-26 19:32:00,7.0,-5.0,30.29,SE,133,1.0,-999.0,57,-99.99,,,-99.99,,2013-02-27 02:32:00,
2013-02-26 19:42:00,7.0,-5.0,30.29,SE,133,1.0,-999.0,57,-99.99,,,-99.99,,2013-02-27 02:42:00,
2013-02-26 19:52:00,8.0,-4.0,30.30,ESE,106,1.0,-999.0,56,-99.99,,,-99.99,,2013-02-27 02:52:00,
2013-02-26 20:01:00,8.0,-4.0,30.30,SSE,163,1.0,-999.0,57,-99.99,,,-99.99,,2013-02-27 03:01:00,
2013-02-26 20:11:00,8.0,-4.0,30.30,SSE,163,1.0,-999.0,57,-99.99,,,-99.99,,2013-02-27 03:11:00,
2013-02-26 20:22:00,7.0,-5.0,30.31,East,95,1.0,-999.0,57,-99.99,,,-99.99,,2013-02-27 03:22:00,
2013-02-26 20:32:00,7.0,-5.0,30.31,East,89,1.0,-999.0,57,-99.99,,,-99.99,,2013-02-27 03:32:00,
2013-02-26 20:42:00,7.0,-5.0,30.31,East,89,1.0,-999.0,57,-99.99,,,-99.99,,2013-02-27 03:42:00,
2013-02-26 20:52:00,7.0,-5.0,30.32,SE,130,1.0,-999.0,57,-99.99,,,-99.99,,2013-02-27 03:52:00,
2013-02-26 21:01:00,7.0,-6.0,30.33,ESE,115,1.0,-999.0,55,-99.99,,,-99.99,,2013-02-27 04:01:00,
2013-02-26 21:11:00,7.0,-6.0,30.33,ESE,115,1.0,-999.0,55,-99.99,,,-99.99,,2013-02-27 04:11:00,
2013-02-26 21:21:00,7.0,-6.0,30.33,ESE,115,1.0,-999.0,55,-99.99,,,-99.99,,2013-02-27 04:21:00,
2013-02-26 21:32:00,6.0,-6.0,30.35,South,184,1.0,-999.0,57,-99.99,,,-99.99,,2013-02-27 04:32:00,
2013-02-26 21:41:00,6.0,-6.0,30.35,South,184,1.0,-999.0,57,-99.99,,,-99.99,,2013-02-27 04:41:00,
2013-02-26 21:52:00,6.0,-6.0,30.37,ESE,109,2.0,-999.0,57,-99.99,,,-99.99,,2013-02-27 04:52:00,
2013-02-26 22:01:00,5.0,-7.0,30.38,SW,217,1.0,-999.0,57,-99.99,,,-99.99,,2013-02-27 05:01:00,
2013-02-26 22:11:00,5.0,-7.0,30.38,SW,217,1.0,-999.0,57,-99.99,,,-99.99,,2013-02-27 05:11:00,
2013-02-26 22:22:00,5.0,-6.0,30.39,ESE,108,1.0,-999.0,59,-99.99,,,-99.99,,2013-02-27 05:22:00,
2013-02-26 22:32:00,5.0,-6.0,30.39,SSW,211,2.0,-999.0,60,-99.99,,,-99.99,,2013-02-27 05:32:00,
2013-02-26 22:42:00,5.0,-6.0,30.39,SSW,211,2.0,-999.0,60,-99.99,,,-99.99,,2013-02-27 05:42:00,
2013-02-26 22:52:00,5.0,-6.0,30.39,SSW,211,2.0,-999.0,60,-99.99,,,-99.99,,2013-02-27 05:52:00,
2013-02-26 23:02:00,5.0,-6.0,30.40,SSE,157,1.0,-999.0,59,-99.99,,,-99.99,,2013-02-27 06:02:00,
2013-02-26 23:11:00,5.0,-6.0,30.40,SSE,157,1.0,-999.0,59,-99.99,,,-99.99,,2013-02-27 06:11:00,
2013-02-26 23:21:00,4.0,-7.0,30.41,ESE,112,1.0,-999.0,59,-99.99,,,-99.99,,2013-02-27 06:21:00,
2013-02-26 23:33:00,4.0,-7.0,30.42,SSW,209,1.0,-999.0,60,-99.99,,,-99.99,,2013-02-27 06:33:00,
2013-02-26 23:41:00,4.0,-7.0,30.42,SSW,209,1.0,-999.0,60,-99.99,,,-99.99,,2013-02-27 06:41:00,
2013-02-26 23:52:00,4.0,-7.0,30.42,SSW,205,1.0,-999.0,60,-99.99,,,-99.99,,2013-02-27 06:52:00,